Date String (YYYY-MM-DD hh:mm:ss) UTC,Instrument flags,absolute air pressure of the measurement (hPa),sample flow rate (lpm),inlet stack bypass flow (lpm),air temperature of the measurement (°C),ambient temperature measured by the external sensor (°C),aerosol sample conditioner tube jacket temperature (°C),OPC LED temperature (°C),internal box temperature (°C),relative humidity of the measurement (%),span deviation,mass concentration of particles derived from Lorenz-Mie calculation of OPC scattering (μg/m³),mass concentration of particles derived from Lorenz-Mie calculation of OPC scattering (μg/m³),mass concentration of particles derived from Lorenz-Mie calculation of OPC scattering (μg/m³)
DateTimeUTC,F1_M11,P_M11,Q1_M11,Q2_M11,T1_M11,T2_M11,T3_M11,T4_M11,T5_M11,U1_M11,ZSPAN_M11,X0_M11,X2_M11,X1_M11
2023-06-04 09:00:00,SystemResetWarning,0833.4,5.01,000.00,030.5,028.9,000.0,038.9,032.1,27.7,0000.0,0004.11,0002.83,0002.49
2023-06-04 09:01:00,SystemResetWarning,0833.4,5.01,000.00,030.5,028.9,000.0,038.9,032.1,27.6,0000.0,0004.07,0002.84,0002.49
2023-06-04 09:02:00,SystemResetWarning,0833.4,4.99,000.00,030.5,028.9,000.0,038.9,032.1,27.6,0000.0,0004.06,0002.86,0002.50
2023-06-04 09:03:00,SystemResetWarning,0833.4,5.00,000.00,030.5,028.9,000.0,038.9,032.1,27.6,0000.0,0004.07,0002.87,0002.51
2023-06-04 09:04:00,SystemResetWarning,0833.4,5.00,000.00,030.5,028.9,000.0,038.9,032.1,27.6,0000.0,0003.90,0002.87,0002.52
2023-06-04 09:05:00,SystemResetWarning,0833.5,5.01,000.00,030.5,028.9,000.0,038.9,032.1,27.6,0000.0,0003.56,0002.84,0002.54
2023-06-04 09:06:00,SystemResetWarning,0833.5,5.00,000.00,030.5,028.9,000.0,038.9,032.1,27.7,0000.0,0003.59,0002.86,0002.56
2023-06-04 09:07:00,SystemResetWarning,0833.5,5.01,000.00,030.4,028.9,000.0,038.9,032.1,27.6,0000.0,0003.61,0002.89,0002.59
2023-06-04 09:08:00,SystemResetWarning,0833.5,4.98,000.00,030.5,028.9,000.0,038.9,032.1,27.7,0000.0,0003.89,0003.02,0002.65
2023-06-04 09:09:00,SystemResetWarning,0833.5,5.00,000.00,030.5,028.9,000.0,038.9,032.1,27.8,0000.0,0004.00,0003.08,0002.67
2023-06-04 09:10:00,SystemResetWarning,0833.5,5.00,000.00,030.5,028.9,000.0,038.9,032.1,27.8,0000.0,0004.02,0003.11,0002.68
2023-06-04 09:11:00,SystemResetWarning,0833.5,5.00,000.00,030.5,028.9,000.0,038.9,032.1,27.8,0000.0,0004.05,0003.13,0002.71
2023-06-04 09:12:00,SystemResetWarning,0833.5,5.01,000.00,030.5,028.9,000.0,038.9,032.1,27.9,0000.0,0004.24,0003.19,0002.76
2023-06-04 09:13:00,SystemResetWarning,0833.5,5.00,000.00,030.5,028.9,000.0,038.9,032.1,27.9,0000.0,0004.32,0003.21,0002.80
2023-06-04 09:14:00,SystemResetWarning,0833.4,5.01,000.00,030.5,028.9,000.0,038.9,032.1,28.0,0000.0,0004.44,0003.24,0002.85
2023-06-04 09:15:00,SystemResetWarning,0833.5,5.00,000.00,030.5,028.9,000.0,038.9,032.1,28.0,0000.0,0005.17,0003.29,0002.90
2023-06-04 09:16:00,SystemResetWarning,0833.5,5.00,000.00,030.5,028.9,000.0,038.9,032.1,28.1,0000.0,0005.53,0003.34,0002.94
2023-06-04 09:17:00,SystemResetWarning,0833.4,5.00,000.00,030.5,028.9,000.0,038.9,032.1,28.2,0000.0,0005.91,0003.39,0003.02
2023-06-04 09:18:00,SystemResetWarning,0833.5,5.00,000.00,030.5,028.9,000.0,038.9,032.1,28.4,0000.0,0006.29,0003.49,0003.10
2023-06-04 09:19:00,SystemResetWarning,0833.4,5.00,000.00,030.5,028.9,000.0,038.9,032.1,28.5,0000.0,0006.47,0003.54,0003.15
2023-06-04 09:20:00,SystemResetWarning,0833.4,5.00,000.00,030.5,028.9,000.0,038.9,032.1,28.6,0000.0,0006.78,0003.61,0003.21
2023-06-04 09:21:00,SystemResetWarning,0833.4,4.99,000.00,030.5,028.9,000.0,038.9,032.1,28.6,0000.0,0007.19,0003.70,0003.26
2023-06-04 09:22:00,SystemResetWarning,0833.4,5.00,000.00,030.5,028.9,000.0,038.9,032.1,28.7,0000.0,0007.38,0003.78,0003.32
2023-06-04 09:23:00,SystemResetWarning,0833.4,5.01,000.00,030.5,028.9,000.0,038.9,032.1,28.7,0000.0,0007.43,0003.82,0003.37
2023-06-04 09:24:00,SystemResetWarning,0833.3,5.01,000.00,030.5,028.9,000.0,038.9,032.1,28.8,0000.0,0007.51,0003.88,0003.42
2023-06-04 09:25:00,SystemResetWarning,0833.3,4.99,000.00,030.5,028.9,000.0,038.9,032.1,28.8,0000.0,0007.60,0003.93,0003.45
2023-06-04 09:26:00,SystemResetWarning,0833.3,5.00,000.00,030.5,028.9,000.0,038.9,032.1,28.8,0000.0,0007.43,0003.98,0003.48
2023-06-04 09:27:00,SystemResetWarning,0833.3,5.00,000.00,030.5,028.9,000.0,038.9,032.1,28.8,0000.0,0007.37,0004.02,0003.51
2023-06-04 09:28:00,SystemResetWarning,0833.3,4.99,000.00,030.5,028.9,000.0,038.9,032.1,28.8,0000.0,0007.26,0004.03,0003.52
2023-06-04 09:29:00,SystemResetWarning,0833.2,5.00,000.00,030.5,028.9,000.0,038.9,032.1,28.8,0000.0,0007.21,0004.01,0003.51
2023-06-04 09:30:00,SystemResetWarning,0833.2,5.00,000.00,030.5,028.9,000.0,038.9,032.1,28.9,0000.0,0007.78,0004.02,0003.50
2023-06-04 09:31:00,SystemResetWarning,0833.3,5.00,000.00,030.5,028.9,000.0,038.9,032.1,28.8,0000.0,0008.14,0004.03,0003.49
2023-06-04 09:32:00,SystemResetWarning,0833.3,5.01,000.00,030.5,028.9,000.0,038.9,032.1,28.8,0000.0,0008.08,0004.01,0003.48
2023-06-04 09:33:00,SystemResetWarning,0833.3,5.00,000.00,030.4,028.9,000.0,038.9,032.1,28.9,0000.0,0008.10,0004.01,0003.46
2023-06-04 09:34:00,SystemResetWarning,0833.3,5.00,000.00,030.4,028.9,000.0,038.9,032.1,28.9,0000.0,0008.10,0004.00,0003.45
2023-06-04 09:35:00,SystemResetWarning,0833.2,4.99,000.00,030.4,028.9,000.0,038.9,032.1,28.9,0000.0,0008.19,0004.03,0003.45
2023-06-04 09:36:00,SystemResetWarning,0833.3,5.00,000.00,030.4,028.9,000.0,038.9,032.1,28.9,0000.0,0008.20,0004.05,0003.47
2023-06-04 09:37:00,SystemResetWarning,0833.3,4.99,000.00,030.4,028.9,000.0,038.9,032.1,29.0,0000.0,0008.16,0004.05,0003.48
2023-06-04 09:38:00,SystemResetWarning,0833.3,5.00,000.00,030.4,028.9,000.0,038.9,032.1,29.0,0000.0,0008.27,0004.07,0003.48
2023-06-04 09:39:00,SystemResetWarning,0833.3,4.99,000.00,030.4,028.9,000.0,038.9,032.0,28.9,0000.0,0008.31,0004.09,0003.49
2023-06-04 09:40:00,SystemResetWarning,0833.3,4.99,000.00,030.4,028.8,000.0,038.9,032.0,29.0,0000.0,0008.31,0004.12,0003.50
2023-06-04 09:41:00,SystemResetWarning,0833.4,5.00,000.00,030.4,027.6,000.0,038.8,031.9,28.9,0000.0,0007.86,0004.10,0003.51
2023-06-04 09:42:00,SystemResetWarning,0833.4,5.00,000.00,030.4,026.1,000.0,038.7,031.6,29.1,0000.0,0007.27,0004.08,0003.53
2023-06-04 09:43:00,SystemResetWarning,0833.3,5.00,000.00,030.3,025.6,000.0,038.6,031.4,29.2,0000.0,0007.16,0004.08,0003.54
2023-06-04 09:44:00,SystemResetWarning,0833.3,5.00,000.00,030.1,025.8,000.0,038.6,031.3,29.5,0000.0,0007.39,0004.07,0003.56
2023-06-04 09:45:00,SystemResetWarning,0833.4,5.01,000.00,030.1,026.2,000.0,038.6,031.3,29.7,0000.0,0007.56,0004.07,0003.57
2023-06-04 09:46:00,SystemResetWarning,0833.4,4.99,000.00,030.0,026.5,000.0,038.5,031.3,29.8,0000.0,0007.64,0004.05,0003.58
2023-06-04 09:47:00,SystemResetWarning,0833.4,5.00,000.00,030.0,026.9,000.0,038.5,031.4,29.8,0000.0,0007.63,0004.05,0003.58
2023-06-04 09:48:00,SystemResetWarning,0833.4,5.00,000.00,030.0,027.2,000.0,038.5,031.4,29.9,0000.0,0007.53,0004.04,0003.60
2023-06-04 09:49:00,SystemResetWarning,0833.4,5.00,000.00,030.0,027.4,000.0,038.5,031.4,30.0,0000.0,0007.44,0004.03,0003.61
2023-06-04 09:50:00,SystemResetWarning,0833.4,5.01,000.00,030.0,027.6,000.0,038.5,031.4,30.0,0000.0,0007.44,0004.04,0003.63
2023-06-04 09:51:00,SystemResetWarning,0833.4,5.00,000.00,030.0,027.8,000.0,038.4,031.5,30.0,0000.0,0007.38,0004.02,0003.64
2023-06-04 09:52:00,SystemResetWarning,0833.4,5.00,000.00,030.0,027.9,000.0,038.4,031.5,30.0,0000.0,0007.44,0004.04,0003.64
2023-06-04 09:53:00,SystemResetWarning,0833.4,5.00,000.00,030.0,028.0,000.0,038.4,031.5,30.0,0000.0,0007.47,0004.06,0003.67
2023-06-04 09:54:00,SystemResetWarning,0833.4,5.00,000.00,030.0,028.1,000.0,038.4,031.5,30.0,0000.0,0007.48,0004.07,0003.68
2023-06-04 09:55:00,SystemResetWarning,0833.4,5.00,000.00,030.0,028.2,000.0,038.4,031.5,30.0,0000.0,0007.22,0004.07,0003.68
2023-06-04 09:56:00,SystemResetWarning,0833.4,5.00,000.00,030.0,028.2,000.0,038.4,031.5,30.0,0000.0,0007.15,0004.10,0003.69
2023-06-04 09:57:00,SystemResetWarning,0833.4,4.99,000.00,030.0,028.3,000.0,038.4,031.6,30.0,0000.0,0007.02,0004.12,0003.69
2023-06-04 09:58:00,SystemResetWarning,0833.4,4.99,000.00,030.0,028.3,000.0,038.4,031.6,30.0,0000.0,0007.10,0004.12,0003.69
2023-06-04 09:59:00,SystemResetWarning,0833.4,5.00,000.00,030.0,028.3,000.0,038.4,031.6,30.0,0000.0,0007.22,0004.13,0003.69
